Stations météo

réclame
Mon MeteoGroup
Frankfurt/Main, Allemagne (10637): Température de l'air & dewpoint: 18.04.2018 10:00:00 - 24.04.2018 10:00:00 (CEST)Frankfurt/Main, Allemagne (10637): Température de l'air 5cm & Température de l'air -5cm: 18.04.2018 10:00:00 - 24.04.2018 10:00:00 (CEST)Frankfurt/Main, Allemagne (10637): Température de l'air -20cm & Température de l'air -100cm: 18.04.2018 10:00:00 - 24.04.2018 10:00:00 (CEST)Frankfurt/Main, Allemagne (10637): Vitesse du vent & gusts: 18.04.2018 10:00:00 - 24.04.2018 10:00:00 (CEST)Frankfurt/Main, Allemagne (10637): Direction du vent: 18.04.2018 10:00:00 - 24.04.2018 10:00:00 (CEST)Frankfurt/Main, Allemagne (10637): reduced air pressure: 18.04.2018 10:00:00 - 24.04.2018 10:00:00 (CEST)Frankfurt/Main, Allemagne (10637): visibility: 18.04.2018 10:00:00 - 24.04.2018 10:00:00 (CEST)Frankfurt/Main, Allemagne (10637): Ensoleillement: 18.04.2018 10:00:00 - 24.04.2018 10:00:00 (CEST)Frankfurt/Main, Allemagne (10637): Quantités de précipitations: 18.04.2018 10:00:00 - 24.04.2018 10:00:00 (CEST)
Date & Time tt [°C] td [°C] tt 5cm [°C] tt -5cm [°C] tt -20cm [°C] tt -100cm [°C] ff [km/h] ff [knt] fx [km/h] fx [knt] dd ppp [hPa] vv [km] sd [min] rr [mm]
24.04.2018 10:00:00 14,7 8,5 16,8 14,5 14,6 13,4 18 10 24 13 SW 1019,0 35 30 0,0
24.04.2018 09:00:00 12,9 8,7 13,9 13,4 14,6 13,4 16 9 27 15 SW 1018,9 35 37 0,0
24.04.2018 08:00:00 10,5 7,8 10,4 11,8 14,8 13,4 8 4 25 13 S 1018,6 10 57 0,0
24.04.2018 07:00:00 8,0 7,0 6,0 11,2 15,1 13,4 2 1 13 7 WNW 1018,5 10 0 0,0
24.04.2018 06:00:00 7,7 6,9 4,6 11,6 15,5 13,4 4 2 9 5 - 1018,9 10 0 0,0
24.04.2018 05:00:00 8,1 7,2 5,8 12,1 15,8 13,4 3 2 9 5 WSW 1018,8 30 0 0,0
24.04.2018 04:00:00 9,2 7,9 6,0 12,6 16,2 13,4 8 4 11 6 S 1018,7 10 0 0,0
24.04.2018 03:00:00 9,4 7,7 7,1 13,1 16,6 13,4 3 2 8 4 SSE 1018,4 35 0 0,0
24.04.2018 02:00:00 10,1 7,7 6,6 13,7 17,0 13,3 7 4 9 5 S 1018,1 40 0 0,0
24.04.2018 01:00:00 11,3 7,8 7,9 14,4 17,4 13,3 8 4 9 5 WSW 1018,0 10 0 0,0
24.04.2018 00:00:00 12,6 8,2 9,4 15,1 17,8 13,3 9 5 18 10 SW 1017,6 10 0 0,0
23.04.2018 23:00:00 14,7 8,4 11,4 16,0 18,1 13,3 13 7 24 13 WNW 1017,0 10 0 0,0
23.04.2018 22:00:00 17,1 8,2 14,7 17,0 18,5 13,3 13 7 25 14 NNW 1016,5 10 0 0,0
23.04.2018 21:00:00 18,3 7,6 14,8 18,1 18,7 13,3 18 10 28 15 W 1015,8 40 12 0,0
23.04.2018 20:00:00 20,3 10,4 19,9 19,9 18,8 13,3 10 5 26 14 NNW 1015,2 40 37 0,0
23.04.2018 19:00:00 21,0 10,7 20,4 20,4 18,9 13,3 19 10 31 17 NNW 1014,5 40 23 0,0
23.04.2018 18:00:00 22,2 9,4 21,8 21,2 18,8 13,3 6 3 26 14 NNE 1013,9 35 23 0,0
23.04.2018 17:00:00 23,2 9,3 25,0 22,1 18,7 13,3 13 7 36 20 SE 1013,3 35 46 0,0
23.04.2018 16:00:00 19,6 14,8 19,9 21,3 18,6 13,2 13 7 26 14 S 1013,7 25 11 -
23.04.2018 15:00:00 19,3 15,5 18,4 21,4 18,3 13,2 8 4 46 25 WSW 1014,3 20 10 0,7
23.04.2018 14:00:00 22,0 13,1 25,1 23,0 17,8 13,2 24 13 42 23 SSW 1014,7 30 47 0,0
23.04.2018 13:00:00 21,1 12,8 23,9 22,0 17,3 13,2 23 12 42 23 SSW 1015,0 30 39 0,0
23.04.2018 12:00:00 19,6 13,2 22,4 20,5 16,9 13,2 22 12 39 21 S 1015,4 35 53 0,0
23.04.2018 11:00:00 18,7 13,0 22,0 17,9 16,8 13,2 18 10 35 19 SSW 1015,4 35 17 0,0
23.04.2018 10:00:00 17,7 12,4 17,6 17,1 16,8 13,1 12 6 30 16 SSW 1015,0 40 0 0,0
23.04.2018 09:00:00 17,1 11,3 17,1 16,3 16,9 13,1 16 9 33 18 SSW 1014,7 30 0 0,0
23.04.2018 08:00:00 16,8 11,0 16,3 16,0 17,0 13,1 10 6 29 16 SSW 1014,0 45 0 0,0
23.04.2018 07:00:00 16,5 10,3 15,0 15,6 17,2 13,1 10 5 29 16 S 1013,6 45 0 0,0
23.04.2018 06:00:00 16,6 10,1 14,5 15,9 17,4 13,0 4 2 11 6 S 1013,4 40 0 0,0
23.04.2018 05:00:00 15,3 11,3 13,9 16,2 17,6 13,0 2 1 11 6 SE 1013,3 40 0 0,0
23.04.2018 04:00:00 15,3 11,0 13,7 16,2 17,9 13,0 6 3 8 4 S 1013,1 40 0 0,0
23.04.2018 03:00:00 14,8 10,5 12,0 16,1 18,3 13,0 6 4 9 5 SSW 1013,3 40 0 0,0
23.04.2018 02:00:00 15,7 10,5 11,5 16,7 18,6 13,0 3 2 9 5 SSE 1013,2 40 0 0,0
23.04.2018 01:00:00 17,1 11,1 12,8 17,6 18,9 12,9 4 2 13 7 S 1013,2 40 0 0,0
23.04.2018 00:00:00 18,4 10,9 14,9 18,4 19,3 12,9 4 2 13 7 - 1013,0 10 0 0,0
22.04.2018 23:00:00 19,2 10,3 15,4 19,0 19,6 12,9 5 3 21 11 SSW 1012,7 10 0 0,0
22.04.2018 22:00:00 22,7 9,3 18,9 19,6 19,9 12,9 11 6 29 16 WSW 1011,8 10 0 0,0
22.04.2018 21:00:00 23,6 9,6 20,7 20,4 20,1 12,9 17 9 28 15 WSW 1011,4 45 0 0,0
22.04.2018 20:00:00 24,8 9,1 21,8 21,6 20,3 12,9 20 11 41 22 SW 1010,8 45 7 0,0
22.04.2018 19:00:00 27,0 9,3 26,7 23,3 20,4 12,8 23 12 38 20 SW 1010,4 40 23 0,0
22.04.2018 18:00:00 27,3 11,2 27,3 24,3 20,3 12,8 16 9 36 20 S 1010,5 40 30 0,0
22.04.2018 17:00:00 27,0 10,4 27,0 24,9 20,0 12,8 19 10 35 19 SSW 1010,9 40 26 0,0
22.04.2018 16:00:00 26,9 10,8 28,9 26,1 19,5 12,8 14 8 29 16 S 1011,5 35 60 0,0
22.04.2018 15:00:00 26,7 12,5 31,3 26,0 18,8 12,8 10 6 21 11 SW 1012,6 30 60 0,0
22.04.2018 14:00:00 25,0 13,6 30,2 24,4 18,2 12,8 9 5 25 13 SSW 1013,3 10 58 0,0
22.04.2018 13:00:00 23,4 12,8 26,4 23,3 17,5 12,7 12 6 40 21 SW 1014,0 25 59 0,0
22.04.2018 12:00:00 23,2 12,1 26,8 21,8 16,9 12,7 11 6 35 19 SW 1014,5 10 60 0,0
22.04.2018 11:00:00 21,6 12,1 25,5 19,5 16,5 12,7 5 3 12 7 SW 1015,0 23 60 0,0
22.04.2018 10:00:00 19,4 11,7 22,8 17,4 16,3 12,7 9 5 13 7 ENE 1015,3 10 60 0,0
22.04.2018 09:00:00 17,4 11,3 19,1 15,7 16,3 12,7 11 6 15 8 NE 1015,4 10 47 0,0
22.04.2018 08:00:00 15,6 11,0 15,6 14,9 16,5 12,6 10 5 15 8 NE 1015,6 18 34 0,0
22.04.2018 07:00:00 14,9 10,7 13,2 14,8 16,8 12,6 10 5 15 8 NE 1015,6 18 0 0,0
22.04.2018 06:00:00 15,0 10,4 12,8 15,0 17,1 12,6 9 5 11 6 NE 1015,8 25 0 0,0
22.04.2018 05:00:00 15,0 10,3 12,8 15,4 17,4 12,5 7 4 9 5 ENE 1016,1 25 0 0,0
22.04.2018 04:00:00 15,9 10,4 13,5 15,9 17,7 12,5 6 4 9 5 NE 1016,5 25 0 0,0
22.04.2018 03:00:00 17,1 10,4 14,8 16,3 18,0 12,5 8 4 11 6 NE 1016,6 30 0 0,0
22.04.2018 02:00:00 18,1 10,2 15,7 16,8 18,4 12,5 6 3 13 7 NE 1017,2 30 0 0,0
22.04.2018 01:00:00 18,7 10,4 16,6 17,3 18,7 12,4 8 5 12 7 NE 1017,4 30 0 0,0
22.04.2018 00:00:00 19,6 10,3 17,5 17,9 19,1 12,4 10 5 17 9 NNE 1017,4 30 0 0,0
21.04.2018 23:00:00 20,0 11,1 17,8 18,7 19,5 12,4 12 7 38 21 NNE 1017,3 40 0 0,0
21.04.2018 22:00:00 21,5 12,2 18,8 19,6 19,8 12,4 9 5 13 7 NE 1017,1 40 0 0,0
21.04.2018 21:00:00 20,9 11,7 17,0 21,0 20,1 12,4 5 3 8 4 E 1017,0 40 0 0,0
21.04.2018 20:00:00 24,3 11,5 21,3 22,7 20,2 12,4 5 3 13 7 E 1016,7 40 53 0,0
21.04.2018 19:00:00 26,0 9,7 26,3 24,3 20,2 12,4 9 5 28 15 N 1016,8 40 60 0,0
21.04.2018 18:00:00 26,7 10,6 28,7 25,5 19,9 12,3 13 7 23 12 N 1017,0 40 57 0,0
21.04.2018 17:00:00 26,5 10,0 30,3 26,4 19,4 12,3 12 6 23 12 N 1017,6 30 60 0,0
21.04.2018 16:00:00 26,6 9,6 31,6 26,8 18,8 12,3 7 4 20 11 NW 1018,1 28 57 0,0
21.04.2018 15:00:00 25,9 10,3 28,7 25,9 18,1 12,3 4 2 31 17 N 1018,8 25 55 0,0
21.04.2018 14:00:00 25,8 10,4 31,8 24,7 17,3 12,3 11 6 22 12 N 1019,3 10 60 0,0
21.04.2018 13:00:00 25,0 10,9 29,8 23,4 16,5 12,3 9 5 28 15 NNE 1019,8 10 60 0,0
21.04.2018 12:00:00 23,3 11,1 27,6 21,2 15,8 12,3 11 6 18 10 NE 1020,4 20 60 0,0
21.04.2018 11:00:00 21,8 11,4 25,4 18,7 15,3 12,2 3 2 8 4 NNW 1020,6 20 60 0,0
21.04.2018 10:00:00 19,4 11,0 22,1 16,3 15,1 12,2 4 2 8 4 WSW 1020,7 20 60 0,0
21.04.2018 09:00:00 16,6 11,3 17,7 14,4 15,1 12,2 3 2 8 4 E 1020,7 20 58 0,0
21.04.2018 08:00:00 12,4 9,8 12,2 13,2 15,3 12,2 2 1 5 3 E 1020,8 27 43 0,0
21.04.2018 07:00:00 9,7 8,8 8,1 12,8 15,6 12,1 4 2 5 3 E 1020,5 27 0 0,0
21.04.2018 06:00:00 9,9 8,9 7,5 13,1 15,9 12,1 3 2 5 3 ESE 1020,2 30 0 0,0
21.04.2018 05:00:00 10,3 9,2 8,1 13,5 16,3 12,1 3 1 5 3 E 1020,1 35 0 0,0
21.04.2018 04:00:00 10,7 9,2 8,9 14,0 16,6 12,1 3 2 4 2 SE 1020,3 50 0 0,0
21.04.2018 03:00:00 11,6 9,6 9,1 14,5 17,0 12,0 2 1 5 3 ENE 1020,1 50 0 0,0
21.04.2018 02:00:00 12,2 9,7 9,2 15,1 17,4 12,0 2 1 5 3 SSE 1020,4 50 0 0,0
21.04.2018 01:00:00 13,6 10,0 9,9 15,8 17,8 12,0 0 0 5 3 N 1020,4 50 0 0,0
21.04.2018 00:00:00 14,5 10,3 10,7 16,6 18,3 12,0 2 1 4 2 SE 1020,4 50 0 0,0
20.04.2018 23:00:00 16,1 10,2 12,4 17,5 18,7 12,0 2 1 4 2 E 1020,4 50 0 0,0
20.04.2018 22:00:00 17,6 9,6 13,8 18,6 19,1 11,9 4 2 9 5 - 1020,6 10 0 0,0
20.04.2018 21:00:00 20,0 10,3 14,5 20,1 19,4 11,9 4 2 14 8 WSW 1020,3 60 2 0,0
20.04.2018 20:00:00 24,0 9,1 20,5 22,0 19,5 11,9 11 6 29 16 SW 1019,9 60 60 0,0
20.04.2018 19:00:00 26,9 7,4 26,6 23,8 19,4 11,9 8 4 16 9 W 1020,0 60 60 0,0
20.04.2018 18:00:00 27,7 8,3 29,2 25,3 19,0 11,9 11 6 23 12 NW 1020,3 60 60 0,0
20.04.2018 17:00:00 27,3 8,3 29,8 25,8 18,5 11,9 6 3 18 10 WSW 1020,7 60 59 0,0
20.04.2018 16:00:00 27,7 8,0 32,5 25,9 17,8 11,9 8 5 17 9 WSW 1021,3 60 60 0,0
20.04.2018 15:00:00 26,6 5,5 32,0 24,9 17,1 11,9 12 7 21 11 SE 1022,0 60 60 0,0
20.04.2018 14:00:00 26,1 8,2 31,4 23,8 16,3 11,9 11 6 25 14 E 1022,6 10 60 0,0
20.04.2018 13:00:00 24,5 8,2 29,8 22,2 15,5 11,9 9 5 16 9 ENE 1023,3 10 60 0,0
20.04.2018 12:00:00 23,0 8,7 28,2 19,9 14,9 11,8 9 5 21 11 ESE 1023,9 45 60 0,0
20.04.2018 11:00:00 21,9 8,4 25,7 17,4 14,4 11,8 9 5 20 11 E 1024,2 45 60 0,0
20.04.2018 10:00:00 19,8 6,9 22,9 15,1 14,2 11,8 9 5 16 9 NE 1024,5 45 60 0,0
20.04.2018 09:00:00 18,2 7,5 19,7 13,5 14,2 11,8 13 7 21 11 ENE 1024,7 45 60 0,0
20.04.2018 08:00:00 14,5 7,0 14,6 12,5 14,3 11,8 11 6 16 9 NE 1024,9 45 60 0,0
20.04.2018 07:00:00 13,7 6,1 11,8 12,2 14,6 11,7 10 5 15 8 NNE 1024,9 40 1 0,0
20.04.2018 06:00:00 13,5 6,1 11,2 12,5 14,8 11,7 9 5 13 7 NE 1024,8 40 0 0,0
20.04.2018 05:00:00 14,2 6,2 11,4 12,7 15,1 11,7 9 5 13 7 NE 1024,8 40 0 0,0
20.04.2018 04:00:00 15,2 6,1 12,6 13,0 15,4 11,7 7 4 11 6 NE 1025,1 45 0 0,0
20.04.2018 03:00:00 14,6 6,8 11,2 13,3 15,7 11,7 8 4 11 6 NE 1025,3 45 0 0,0
20.04.2018 02:00:00 14,6 7,3 11,1 13,8 16,1 11,6 7 4 11 6 NE 1025,5 45 0 0,0
20.04.2018 01:00:00 15,6 7,3 9,3 14,4 16,4 11,6 10 5 13 7 ENE 1025,6 45 0 0,0
20.04.2018 00:00:00 16,0 7,2 11,2 15,0 16,8 11,6 9 5 14 8 ENE 1025,7 45 0 0,0
19.04.2018 23:00:00 17,0 5,9 11,1 15,8 17,2 11,6 8 4 10 5 ENE 1025,7 45 0 0,0
19.04.2018 22:00:00 18,9 4,7 13,1 16,6 17,5 11,6 8 4 11 6 E 1025,8 45 0 0,0
19.04.2018 21:00:00 23,7 3,0 18,4 17,7 17,8 11,6 6 4 9 5 E 1025,3 50 16 0,0
19.04.2018 20:00:00 25,7 1,9 22,0 19,1 17,9 11,6 8 4 18 10 ESE 1025,0 50 60 0,0
19.04.2018 19:00:00 26,9 1,2 25,6 20,8 17,9 11,5 12 7 26 14 SE 1024,9 50 60 0,0
19.04.2018 18:00:00 27,7 1,2 27,6 22,1 17,8 11,5 14 8 26 14 ESE 1024,9 50 60 0,0
19.04.2018 17:00:00 27,9 1,5 29,2 23,0 17,4 11,5 14 8 28 15 SE 1025,3 50 60 0,0
19.04.2018 16:00:00 27,5 2,6 29,9 23,3 16,9 11,5 11 6 30 16 ESE 1025,9 50 60 0,0
19.04.2018 15:00:00 27,1 5,9 31,0 22,8 16,2 11,5 16 9 24 13 E 1026,6 10 60 0,0
19.04.2018 14:00:00 26,5 4,4 30,3 21,7 15,6 11,5 10 5 27 14 ESE 1027,2 45 60 0,0
19.04.2018 13:00:00 25,0 5,8 28,3 20,4 15,0 11,5 16 9 26 14 E 1027,9 10 60 0,0
19.04.2018 12:00:00 23,0 4,8 25,8 18,9 14,4 11,5 16 9 28 15 E 1028,5 10 60 0,0
19.04.2018 11:00:00 21,1 7,7 24,9 16,7 14,0 11,4 15 8 29 16 E 1028,9 10 60 0,0
19.04.2018 10:00:00 18,7 6,9 21,6 14,6 13,8 11,4 10 5 18 10 ENE 1029,1 45 60 0,0
19.04.2018 09:00:00 16,7 7,1 17,7 13,0 13,8 11,4 13 7 22 12 NNE 1029,2 45 60 0,0
19.04.2018 08:00:00 15,5 7,1 15,0 12,1 14,0 11,4 9 5 15 8 NE 1029,3 45 60 0,0
19.04.2018 07:00:00 13,4 7,2 11,3 11,8 14,2 11,4 12 7 16 9 NE 1029,2 45 8 0,0
19.04.2018 06:00:00 12,4 7,4 8,3 12,1 14,5 11,3 6 3 8 4 E 1029,4 40 0 0,0
19.04.2018 05:00:00 14,1 7,8 11,5 12,6 14,8 11,3 6 3 13 7 ENE 1029,3 40 0 0,0
19.04.2018 04:00:00 14,5 8,2 11,8 12,9 15,1 11,3 11 6 17 9 NE 1029,4 40 0 0,0
19.04.2018 03:00:00 12,7 8,2 10,0 13,2 15,4 11,3 12 7 16 9 ENE 1029,4 40 0 0,0
19.04.2018 02:00:00 14,1 7,7 11,2 13,8 15,8 11,2 10 5 13 7 NE 1029,5 40 0 0,0
19.04.2018 01:00:00 15,5 7,7 10,8 14,4 16,1 11,2 8 4 14 8 ENE 1029,5 45 0 0,0
19.04.2018 00:00:00 16,0 8,2 12,1 14,9 16,5 11,2 8 4 11 6 NNE 1029,4 10 0 0,0
18.04.2018 23:00:00 16,3 7,4 12,1 15,6 16,8 11,2 7 4 9 5 E 1029,6 50 0 0,0
18.04.2018 22:00:00 21,2 6,8 17,1 16,5 17,2 11,2 6 3 8 4 E 1029,4 50 0 0,0
18.04.2018 21:00:00 23,1 6,0 18,9 17,5 17,5 11,2 5 3 8 4 E 1029,1 55 15 0,0
18.04.2018 20:00:00 24,5 4,8 21,6 18,9 17,6 11,2 11 6 23 12 ESE 1028,7 10 60 0,0
18.04.2018 19:00:00 25,4 3,7 24,7 20,6 17,6 11,2 15 8 23 12 E 1028,8 10 60 0,0
18.04.2018 18:00:00 25,9 1,4 26,3 22,2 17,4 11,1 14 8 27 14 E 1029,0 50 60 0,0
18.04.2018 17:00:00 25,8 6,8 28,8 23,3 17,0 11,1 15 8 29 16 SSE 1029,4 10 60 0,0
18.04.2018 16:00:00 25,2 6,9 28,7 23,5 16,4 11,1 12 7 26 14 ENE 1029,9 50 60 0,0
18.04.2018 15:00:00 24,8 5,3 29,5 22,6 15,7 11,1 10 6 22 12 E 1030,5 50 60 0,0
18.04.2018 14:00:00 24,0 2,5 27,8 21,8 15,0 11,1 9 5 23 13 E 1030,8 50 60 0,0
18.04.2018 13:00:00 23,3 9,7 28,1 20,5 14,2 11,1 7 4 21 11 ENE 1031,2 50 60 0,0
18.04.2018 12:00:00 21,7 8,4 26,5 18,3 13,6 11,1 9 5 23 12 NE 1031,6 50 60 0,0
18.04.2018 11:00:00 19,4 7,9 22,1 16,0 13,2 11,1 11 6 21 11 ENE 1031,7 10 60 0,0
18.04.2018 10:00:00 16,8 8,4 20,3 13,6 13,0 11,0 9 5 18 10 NE 1031,6 10 60 0,0

tt = Température de l'air
td = dewpoint
tt 5cm = Température de l'air 5cm
tt -5cm = Température de l'air -5cm
tt -20cm = Température de l'air -20cm
tt -100cm = Température de l'air -100cm
ff = Vitesse du vent
fx = gusts
dd = Direction du vent
ppp = reduced air pressure
vv = visibility
sd = Ensoleillement
rr = Quantités de précipitations

stations d'obs. à proximité